CAPE
23 955 1669 1090 1223 1351 1596 1525 1277 1322 1602 1846 1530 1562 1431 1576 1640 1724 1829 1855 1640 1403 1579 1636 1556 1463 1497 1306 1335 1726 1952 1843 1871 1720 1094 1360 1496 1548 1653 1695 1578 1259 1720
48 1243 1800 1404 1142 1542 1452 1411 1381 1455 1379 1408 1490 1647 1304 1209 1638 1386 1569 1543 1602 1792 1638 1691 1575 1600 1253 872 1335 1798 1861 1796 1703 1700 1572 1426 1340 1002 1312 1409 1430 1249 1589
358 1297 1181 1753 1487 1335 1608 1131 1411 1280 1186 1377 1478 1319 1615 1534 1479 1427 1664 1632 1641 1774 1620 1684 1629 1532 1289 1010 939 1721 1647 1764 1570 1406 1488 979 912 1194 1123 1433 1364 1350 1498
498 1288 1274 1849 1797 1542 1832 1609 1330 1070 1122 1389 1471 1534 1347 1559 1592 1502 1454 1220 1596 1697 1581 1423 1460 1600 1445 1081 913 1040 1441 1516 1382 1350 725 782 754 1338 1267 1307 1287 1211 1277
810 941 949 1733 1666 1568 1462 1424 1278 1321 1165 1050 1355 1448 1513 1190 1255 1635 1625 1558 1632 1672 1575 1376 1286 1348 1494 1465 1404 1086 1324 1087 1038 772 670 828 884 1229 1332 1273 1180 1394 1447
752 1068 1702 1882 1588 1633 1605 1431 1423 1496 1290 1264 1339 1206 1258 1266 1434 1327 1286 1373 1381 1519 1473 1449 1362 1226 1250 1035 751 789 1311 1109 815 495 600 1031 600 825 955 638 896 826 999
734 1242 1674 2072 1680 1827 1566 1553 1461 1392 1448 1358 1222 1210 1215 1092 997 1119 1316 1330 1319 1243 760 844 879 996 843 917 933 837 713 994 202 522 664 683 787 1575 682 644 706 931 838
899 1459 1492 1691 1565 1606 1609 1689 1547 1430 1178 1444 1399 1371 1389 1148 869 1119 1078 1071 1000 691 777 742 861 906 796 833 858 846 1023 1059 464 423 591 771 1477 1630 1102 1217 1057 1025 1343
977 1318 1308 1057 1228 1626 1850 1625 1914 1337 1466 1043 741 932 1035 1133 1116 1094 945 869 903 952 784 730 766 824 907 731 791 648 897 681 309 410 580 831 1604 1345 1212 982 1159 1280 1116
719 909 832 796 1118 1192 1341 1700 1775 1387 1363 1170 1347 764 621 666 938 973 667 771 885 679 811 670 737 738 747 468 329 494 747 716 164 400 621 769 1776 1515 1295 1313 1004 1171 1173
364 449 442 554 909 958 1231 1326 1225 1323 1447 1303 1261 1176 1062 162 130 416 76 186 526 596 534 465 416 464 521 562 402 319 708 174 267 355 565 1373 1602 1412 1204 1050 1234 1160 1144
233 372 467 620 613 764 1110 1117 1200 993 949 812 823 559 96 63 21 91 153 125 268 105 611 839 689 403 516 221 387 455 102 127 100 139 575 1872 1543 979 1151 1089 1182 1216 1266
337 258 343 430 304 460 643 827 777 773 731 676 639 448 106 101 72 90 127 50 66 157 92 213 64 4 0 67 252 254 26 36 42 83 401 1708 1543 1154 1099 1130 1257 1283 1269
393 471 391 303 340 312 358 745 496 689 376 202 364 359 217 131 115 94 86 65 24 29 52 0 0 0 3 82 215 192 99 115 83 51 253 1297 1615 1152 1126 1046 1275 1078 1206
413 505 459 487 405 410 454 507 464 422 402 361 250 237 280 294 182 163 141 106 66 23 18 32 0 0 0 84 122 228 65 196 155 79 57 888 1354 1374 1167 1208 1351 1202 753
259 407 406 536 438 317 309 259 363 391 348 470 610 435 382 385 327 341 219 144 51 20 15 1 11 38 1 70 137 296 190 221 196 106 102 207 1161 1421 1385 1215 1130 1274 1339
255 319 376 564 298 445 422 399 610 453 327 402 521 396 445 496 431 541 288 225 97 77 127 52 54 21 13 151 307 365 270 260 145 137 114 69 615 954 641 1308 1796 1784 1341
253 333 296 418 289 397 204 233 385 583 549 505 449 527 484 545 764 841 462 342 236 168 248 145 37 0 23 221 345 299 410 249 270 233 198 39 64 189 528 804 1092 1008 1209
199 274 183 282 156 287 256 182 103 245 533 590 656 397 226 634 1161 884 496 438 343 292 276 254 254 129 82 207 262 330 364 567 604 480 373 218 105 66 77 259 775 613 944
108 186 132 117 57 52 94 107 295 277 563 733 491 578 330 695 928 838 581 556 491 451 373 332 286 467 290 266 338 548 557 606 716 581 500 445 259 205 95 82 32 325 1156
142 127 127 122 51 88 99 207 341 432 590 724 606 560 526 536 1056 1119 807 672 543 442 421 597 391 351 493 507 469 386 538 668 637 574 623 544 414 391 376 151 104 62 277
166 122 137 142 44 143 184 156 327 527 694 549 671 658 589 795 1282 1461 1116 782 592 501 563 558 653 537 413 574 490 476 286 400 580 568 502 406 400 403 356 415 291 192 95
261 142 166 156 102 224 200 269 497 645 754 930 946 779 725 661 1342 1415 1291 952 774 539 648 667 819 632 607 745 712 513 254 153 144 169 269 200 241 333 406 381 450 331 280
279 214 249 161 79 250 327 341 717 956 965 776 614 723 691 1282 1471 1298 1246 969 875 660 481 624 559 579 749 725 743 801 701 461 68 0 10 43 78 161 284 438 525 506 416
216 252 256 211 129 326 429 660 768 886 1087 709 615 690 731 1261 980 1570 1453 957 946 985 804 680 756 719 718 690 759 773 718 666 240 1 53 32 49 2 21 156 457 612 571
184 253 245 228 391 510 783 936 842 781 957 1078 913 834 848 444 394 1205 1621 1197 1117 1051 1175 1180 859 877 920 835 849 761 788 700 425 233 315 426 577 231 136 38 92 339 574
CIN
-7 -1 -0 -0 -0 -0 -0 -0 -0 -0 -0 -0 -0 -0 -0 -0 -0 -0 -0 -0 -0 -0 -0 -0 -0 -0 -0 -0 -1 -1 -0 -0 -0 -0 -1 -0 -0 -0 -0 -0 -0 -0 -0
-19 -1 -0 -0 -0 -0 -0 -0 -0 -0 -0 -0 -0 -0 -0 -0 -0 -0 -0 -0 -0 -0 -0 -0 -0 -0 -0 -2 -1 -0 -0 -0 -0 -0 -0 -0 -0 -0 -0 -0 -0 -0 -0
-18 -1 -2 -0 -0 -0 -0 -0 -0 -0 -0 -0 -0 -0 -0 -0 -0 -0 -0 -0 -0 -0 -0 -0 -0 -0 -0 -0 -1 -0 -0 -0 -0 -0 -0 -2 -8 -0 -0 -0 -0 -0 -0
-20 -0 -2 -0 -0 -0 -0 -0 -0 -0 -0 -0 -0 -0 -0 -0 -0 -0 -0 -0 -0 -0 -0 -0 -0 -0 -0 -0 -0 -0 -0 -0 -0 -0 -13 -3 -2 -0 -0 -0 -0 -0 -0
-5 -12 -3 -0 -0 -0 -0 -0 -0 -0 -0 -0 -0 -0 -0 -0 -3 -0 -0 -2 -4 -1 -0 -0 -0 -0 -0 -0 -0 -0 -0 -0 -0 -9 -10 -2 -1 -0 -0 -0 -0 -0 -0
-6 -4 -0 -0 -0 -0 -0 -0 -0 -0 -0 -0 -0 -0 -0 -0 -0 -0 -3 -4 -7 -3 -0 -0 -0 -0 -0 -4 -5 -9 -4 -1 -6 -4 -7 -8 -5 -0 -0 -0 -1 -0 -0
-13 -1 -1 -0 -0 -0 -1 -0 -0 -0 -0 -0 -0 -0 -0 -0 -1 -3 -0 -0 -1 -4 -2 -0 -0 -0 -2 -4 -6 -9 -5 -5 -63 -11 -11 -9 -2 -0 -0 -0 -0 -0 -0
-23 -0 -1 -0 -0 -0 -2 -0 -0 -0 -3 -0 -0 -0 -0 -0 -0 -0 -0 -0 -0 -3 -1 -4 -1 -3 -3 -3 -11 -6 -10 -20 -46 -28 -17 -6 -7 -0 -0 -0 -0 -0 -0
-9 -1 -0 -2 -1 -0 -0 -0 -1 -0 -0 -8 -7 -0 -0 -0 -0 -2 -2 -0 -0 -0 -0 -3 -2 -3 -6 -9 -12 -7 -9 -21 -34 -33 -21 -12 -3 -0 -0 -0 -0 -0 -0
-27 -14 -20 -21 -13 -19 -12 -1 -12 -5 -2 -7 -0 -3 -9 -4 -0 -3 -4 -1 -0 -0 -0 -6 -2 -3 -9 -19 -24 -15 -9 -12 -34 -41 -26 -20 -1 -0 -0 -0 -0 -0 -0
-61 -54 -57 -54 -31 -51 -30 -20 -27 -8 -0 -0 -1 -0 -11 -31 -38 -40 -41 -21 -6 -1 -0 -0 -13 -10 -10 -20 -18 -20 -30 -38 -41 -38 -29 -7 -2 -0 -0 -0 -0 -0 -0
-114 -81 -58 -57 -68 -63 -40 -38 -32 -28 -11 -11 -19 -34 -80 -29 -16 -69 -28 -17 -33 -13 -0 -0 -7 -14 -13 -42 -20 -19 -40 -37 -30 -32 -27 -0 -0 -0 -0 -0 -0 -0 -0
-35 -86 -94 -91 -109 -112 -84 -60 -62 -61 -40 -23 -46 -44 -28 -20 -28 -15 -42 -3 -53 -35 -27 -15 -39 -8 -0 -32 -36 -28 -84 -93 -70 -57 -35 -3 -1 -0 -2 -0 -0 -0 -0
-46 -24 -22 -95 -148 -137 -132 -62 -95 -72 -87 -77 -75 -68 -30 -37 -22 -31 -23 -21 -25 -54 -39 -1 -0 -0 -12 -19 -30 -31 -25 -57 -23 -31 -46 -3 -1 -1 -0 -0 -0 -0 -0
-35 -34 -40 -46 -95 -95 -72 -60 -67 -99 -120 -33 -20 -80 -79 -33 -45 -43 -34 -34 -45 -67 -72 -47 -0 -0 -0 -11 -16 -48 -83 -81 -110 -87 -83 -10 -2 -1 -0 -0 -0 -0 -1
-68 -57 -60 -49 -81 -61 -37 -38 -62 -33 -43 -72 -48 -34 -40 -41 -35 -51 -35 -14 -49 -106 -101 -31 -61 -57 -17 -16 -18 -28 -29 -64 -38 -46 -38 -49 -4 -1 -1 -1 -0 -0 -0
-90 -65 -61 -44 -78 -44 -53 -40 -39 -34 -24 -26 -26 -14 -27 -36 -61 -39 -24 -40 -92 -109 -88 -102 -100 -133 -10 -14 -59 -52 -28 -59 -72 -46 -37 -84 -24 -4 -8 -1 -0 -0 -0
-37 -39 -64 -66 -81 -46 -93 -88 -91 -44 -33 -70 -18 -52 -97 -47 -23 -24 -18 -58 -88 -94 -87 -118 -137 -0 -156 -72 -47 -47 -39 -40 -105 -23 -33 -47 -110 -62 -23 -5 -4 -3 -0
-47 -45 -71 -90 -86 -32 -70 -87 -131 -99 -43 -52 -54 -42 -42 -38 -38 -39 -55 -74 -102 -91 -84 -94 -90 -117 -136 -70 -56 -51 -31 -55 -19 -16 -25 -19 -15 -109 -70 -42 -9 -5 -0
-31 -72 -85 -128 -175 -195 -125 -96 -97 -115 -67 -42 -51 -15 -15 -18 -21 -47 -62 -25 -100 -98 -109 -92 -98 -45 -64 -73 -63 -52 -30 -27 -15 -21 -12 -10 -14 -16 -16 -11 -21 -24 -0
-30 -56 -58 -39 -240 -152 -56 -73 -59 -44 -61 -35 -39 -39 -10 -13 -11 -40 -23 -19 -60 -107 -124 -69 -88 -81 -25 -27 -29 -42 -25 -33 -52 -35 -43 -43 -39 -18 -11 -10 -8 -21 -20
-25 -39 -98 -45 -173 -110 -64 -100 -156 -73 -28 -61 -91 -71 -25 -10 -13 -20 -8 -23 -33 -98 -90 -75 -39 -42 -50 -28 -30 -31 -32 -41 -42 -32 -37 -52 -81 -56 -29 -10 -8 -9 -37
-16 -31 -40 -42 -112 -76 -58 -75 -167 -73 -75 -66 -74 -85 -56 -58 -13 -20 -22 -27 -19 -101 -79 -91 -49 -47 -35 -22 -38 -36 -44 -77 -88 -87 -86 -93 -114 -95 -78 -52 -18 -14 -13
-36 -33 -17 -50 -125 -90 -65 -79 -144 -53 -40 -33 -61 -80 -76 -99 -34 -21 -2 -31 -19 -61 -105 -98 -81 -58 -28 -12 -28 -40 -34 -77 -109 -3 -83 -181 -137 -96 -89 -97 -56 -29 -31
-31 -11 -12 -6 -75 -178 -93 -86 -100 -58 -33 -53 -67 -104 -75 -38 -45 -45 -11 -22 -40 -55 -77 -88 -107 -54 -33 -29 -30 -80 -68 -47 -140 -13 -52 -42 -41 -3 -124 -205 -110 -57 -49
-44 -24 -17 -12 -193 -172 -125 -107 -94 -87 -64 -41 -40 -48 -36 -40 -31 -85 -24 -13 -29 -36 -31 -34 -53 -52 -36 -36 -28 -48 -56 -37 -69 -54 -50 -43 -26 -28 -53 -51 -48 -131 -109
Wind_Speed
nan 10 9 7 6 4 2 5 5 5 6 7 10 11 10 11 12 11 12 9 11 10 9 9 9 6 4 5 4 6 5 6 4 4 5 5 3 3 4 5 5 4 2
nan 6 6 4 4 2 3 5 5 5 6 6 7 8 8 10 11 10 12 9 9 6 8 7 8 7 7 5 6 5 5 5 4 4 4 5 1 2 1 2 2 3 2
3 3 2 2 2 1 3 3 5 6 7 7 8 8 6 7 7 8 10 9 8 8 6 5 6 7 8 6 4 5 4 3 4 5 4 14 11 5 5 7 7 5 6
6 6 3 3 4 2 1 2 3 6 7 8 11 10 9 8 7 8 7 10 9 6 7 4 4 5 8 9 6 4 4 2 2 6 13 12 9 5 7 10 9 9 9
11 11 6 4 6 4 3 3 3 5 8 9 12 12 11 8 8 7 9 8 10 7 7 6 4 4 6 7 9 9 7 3 1 5 10 7 9 7 8 10 9 8 9
11 11 5 5 6 6 6 5 3 4 7 10 11 13 12 12 7 6 8 7 4 2 6 4 3 3 5 6 9 10 14 9 4 5 5 6 6 8 8 9 6 11 11
11 11 12 6 4 7 7 6 6 6 8 9 10 12 13 14 12 8 5 6 4 3 3 5 3 3 5 5 5 10 12 14 6 3 4 5 5 10 12 13 15 13 12
10 13 11 5 4 6 7 7 8 10 11 11 11 12 13 13 12 12 7 4 3 3 1 1 2 3 4 6 5 3 9 9 9 5 5 5 5 8 9 10 11 12 12
14 13 11 7 3 4 5 9 11 12 12 12 13 14 17 17 15 9 9 4 1 2 2 0 1 1 3 5 4 2 6 6 4 7 7 6 7 8 8 8 8 10 10
22 17 11 13 10 6 2 11 12 13 12 13 14 16 17 22 17 6 8 5 4 2 4 3 3 2 4 3 4 3 5 4 5 7 7 7 9 9 10 9 10 10 8
18 20 20 15 11 6 6 10 13 13 12 14 13 14 15 13 12 4 nan 8 4 7 3 5 5 3 2 3 6 5 3 1 1 3 5 10 10 13 12 11 10 10 9
20 22 18 13 13 7 7 10 7 7 5 7 6 7 nan nan nan nan 6 4 4 13 5 5 7 6 5 7 7 3 3 5 1 1 4 11 13 14 14 15 12 9 10
17 25 14 12 8 9 11 9 8 7 5 7 11 10 9 8 nan nan 6 nan nan 12 nan 5 nan nan nan nan 3 2 nan nan nan nan 3 10 12 12 12 13 14 13 12
16 18 16 9 8 10 9 10 10 7 7 6 10 17 9 11 12 nan nan nan nan nan nan nan nan nan nan nan 3 2 nan 2 nan nan 1 9 8 10 14 12 12 11 12
20 21 11 8 11 12 13 12 12 7 5 8 12 14 10 14 16 16 14 10 nan nan nan nan nan nan nan nan 5 6 nan 2 1 nan nan 8 8 13 10 12 13 13 11
26 16 9 11 12 12 15 11 12 6 8 9 9 11 11 12 11 9 9 9 nan nan nan nan nan nan nan nan 6 8 8 2 2 1 6 6 7 10 9 11 12 14 12
20 18 12 13 12 12 13 9 7 7 4 5 8 7 7 9 11 9 9 7 nan nan 4 nan nan nan nan 6 8 6 6 5 3 2 1 nan 3 9 10 11 12 13 14
20 21 17 10 10 11 8 8 5 6 4 5 4 6 6 4 6 6 7 5 4 4 3 4 nan nan nan 5 4 5 5 4 5 4 2 nan nan 5 7 12 12 9 14
22 20 14 8 9 8 10 7 6 5 2 6 5 7 9 4 2 3 4 4 3 3 4 6 3 3 nan 3 4 4 8 7 6 5 5 5 4 nan nan 6 9 15 16
13 13 11 6 nan nan nan 7 5 5 5 7 6 6 6 5 3 4 1 2 1 4 6 6 5 5 5 6 8 5 5 5 3 4 5 7 7 6 nan nan nan 5 12
12 8 7 6 nan nan nan 6 6 7 5 5 7 7 7 4 3 2 1 2 3 4 7 8 8 6 4 5 4 12 11 9 7 6 1 4 6 7 7 5 3 nan 2
7 6 6 8 nan 10 7 7 4 2 4 5 7 6 6 5 4 2 2 3 6 4 3 3 5 5 5 7 10 6 10 13 8 7 11 9 0 1 3 4 5 6 nan
6 7 7 11 10 10 7 6 7 5 3 4 4 3 6 6 2 4 5 5 7 7 6 7 5 4 6 3 7 10 3 10 6 10 21 14 1 2 6 7 8 8 7
6 6 8 7 nan 8 3 2 1 1 3 4 5 1 2 4 4 7 6 6 6 7 8 8 8 5 7 6 8 6 4 6 nan nan nan nan nan 7 6 9 8 10 8
4 5 4 5 5 4 2 3 4 3 3 1 0 1 4 4 3 6 8 7 7 7 7 10 9 9 9 9 10 11 8 3 4 nan nan nan nan nan nan 6 8 8 10
3 5 5 1 5 3 3 1 2 4 3 2 2 1 3 4 5 5 9 11 8 9 8 6 7 9 10 11 10 9 10 7 7 12 6 5 5 4 3 nan nan 3 6
Wind_Direction
nan 100 73 64 61 70 53 61 30 34 36 355 349 355 350 7 8 25 26 28 30 42 48 45 46 63 68 68 61 52 51 44 48 83 91 96 114 184 258 260 242 135 243
nan 91 50 61 56 80 44 44 21 23 31 1 343 355 356 11 12 5 8 17 22 34 51 25 37 36 41 37 47 51 53 70 58 74 112 107 75 300 283 339 334 83 4
198 131 39 20 16 30 43 25 11 12 18 352 326 332 349 355 4 356 357 6 358 14 32 42 26 35 18 32 37 48 48 93 139 141 125 119 113 28 15 20 13 19 18
227 194 199 309 311 3 296 338 352 11 356 349 331 336 339 354 346 344 343 348 22 19 21 28 52 37 30 18 20 8 50 67 132 138 130 114 101 35 29 32 19 20 28
211 208 206 283 295 303 302 317 349 354 339 344 342 347 337 338 340 341 340 10 28 0 353 2 31 58 43 23 26 19 11 338 183 136 128 107 104 50 40 32 19 35 36
223 210 256 278 294 300 307 308 336 339 335 341 350 332 328 330 332 336 325 337 26 340 5 357 1 56 55 36 18 20 21 25 126 103 95 80 86 35 46 38 31 37 37
217 206 214 254 291 308 318 321 340 344 338 342 348 330 327 325 320 307 314 320 354 355 349 10 1 48 48 31 21 48 42 39 42 63 89 81 84 8 23 27 29 34 32
224 211 214 249 311 326 313 326 348 358 348 349 343 336 327 324 309 304 294 304 330 18 16 213 16 36 63 50 49 8 33 16 27 39 59 77 27 4 8 15 23 32 26
207 217 212 203 271 332 318 341 2 8 352 353 353 344 330 313 305 346 258 286 209 74 82 220 211 322 82 72 71 38 0 329 33 68 59 79 12 346 353 1 25 31 23
223 201 196 189 216 193 152 11 15 22 0 11 4 359 358 7 347 342 214 214 22 134 118 83 175 155 124 58 75 34 22 352 13 33 66 61 15 357 4 2 14 26 14
214 194 206 200 192 188 165 58 33 29 20 23 18 8 343 352 359 17 nan 187 216 168 117 101 125 187 122 138 98 86 209 79 5 8 49 43 20 13 10 10 20 8 359
195 196 186 199 181 138 91 89 78 67 41 37 12 2 nan nan nan nan 135 158 105 163 126 125 121 137 159 139 145 201 258 274 30 270 46 27 27 23 17 18 13 3 359
216 204 190 196 142 110 106 104 98 77 53 37 31 33 9 27 nan nan 124 nan nan 128 nan 158 nan nan nan nan 156 255 nan nan nan nan 47 8 25 29 20 18 16 15 13
194 174 195 182 136 113 103 115 96 71 53 36 44 26 33 79 58 nan nan nan nan nan nan nan nan nan nan nan 112 80 nan 2 nan nan 328 7 21 23 2 10 12 21 21
255 170 168 129 118 110 104 103 99 84 64 34 35 46 45 81 94 87 89 105 nan nan nan nan nan nan nan nan 117 64 nan 77 214 nan nan 353 351 2 12 5 4 4 13
162 139 135 113 110 118 98 80 95 119 63 49 45 59 47 86 82 91 87 100 nan nan nan nan nan nan nan nan 98 67 63 66 242 320 236 218 348 7 21 1 360 358 4
130 141 140 93 122 102 92 80 99 84 19 36 72 84 78 81 97 97 96 102 nan nan 63 nan nan nan nan 102 83 80 59 65 39 30 78 nan 240 17 9 356 343 340 349
143 108 97 104 90 89 98 99 100 78 57 60 51 88 77 72 91 96 85 90 90 76 13 351 nan nan nan 56 78 109 82 57 53 34 338 nan nan 298 349 11 9 350 338
90 99 93 110 103 109 109 108 117 96 102 82 70 92 83 54 8 47 99 111 38 6 356 349 331 351 nan 48 70 83 84 48 23 9 345 316 310 nan nan 17 30 6 7
92 95 95 99 nan nan nan 136 123 95 79 76 69 71 91 86 6 350 91 104 268 322 329 326 335 338 340 7 19 23 13 63 57 36 2 314 323 324 nan nan nan 352 24
133 115 104 130 nan nan nan 127 99 67 59 64 67 61 48 62 59 349 343 317 284 344 336 335 315 336 337 337 347 49 42 57 67 42 330 333 323 351 331 329 296 nan 289
110 116 144 126 nan 108 124 109 100 85 82 61 44 54 51 30 56 105 332 358 334 308 306 313 296 285 301 327 321 324 54 80 95 26 333 264 70 2 45 341 353 336 nan
41 54 64 64 84 84 78 136 161 197 157 129 122 70 34 23 43 341 347 344 344 321 322 343 339 314 285 318 343 334 49 59 68 41 47 74 80 12 39 22 20 7 346
50 33 40 42 nan 72 53 121 111 192 63 41 45 46 2 331 329 303 331 328 333 319 320 339 8 328 294 313 286 300 340 325 nan nan nan nan nan 115 84 71 46 34 13
0 11 8 22 79 99 136 144 191 194 119 107 173 54 337 300 286 284 297 299 312 306 328 339 341 341 308 295 299 307 304 326 300 nan nan nan nan nan nan 90 83 70 34
225 261 239 301 68 118 158 59 349 19 46 358 305 338 1 338 324 303 292 284 294 305 317 345 358 330 310 302 298 292 292 306 305 297 312 35 54 73 64 nan nan 2 4